SL-12 R/B(2), 12850

Orbit data source: Space-Track

SL-12 R/B(2), 12850 is space debris in GEO originally from a launch on Thu, 30 Jul 1981 UTC launched from the Tyuratam Missile And Space Complex (TTMTR). Debris objects in space refer to the collection of defunct objects orbiting the Earth. Examples of debris include non-operational satellites, rocket bodies, and fragments generated from explosions, collisions, or faulty payload assembly.

Loading next visibility...
Identifier
12850, 1981-069F
Orbit
GEO
Country
Flag of CISCIS
Related business
Manufacturer
NPO Energiya
Mission
Spacecraft
Bus & Motor
BLOK DM, Unknown motor
Mass
2,440 kg wet, 2,440 kg dry
Launch date (UTC)
1981-07-30 (44 years ago)
Launch vehicle
Unknown
Launch site
Tyuratam Missile And Space Complex (TTMTR)
Object type
Payload
Rocket body
Debris
Shape & HBR
Cyl, 3.1 m
Radar Cross Section
23.597 m², Large (>1 m²)

Expand to show TLE details & history
Last TLE update: 19 hours ago

TLE from 19 hours ago
0 SL-12 R/B(2)
1 12850U 81069F   25259.33662817 -.00000148  00000-0  00000-0 0  9993
2 12850   8.7739 301.8889 0022028 185.6882 183.2267  0.97701167113553
Epoch: 2025-09-16T08:04Z
TLE epoch observation values (Epoch: 2025-09-16T08:04:44.673Z)
Latitude
1.35608°
Longitude
-166.01062°
Altitude
36,616.813 km
Speed
3.042 km/s
True Right ascension
20h 42m 48s
True Declination
1° 21' 17"
Sunlit
Object was in daylight at epoch
Visualization orbit readout
Latitude
Unknown
Longitude
Unknown
Altitude
Unknown
Speed
Unknown
Apparent Right ascension
Unknown
Apparent Declination
Unknown
Sunlit
N/A
Visualization observer readout
Local Sidereal Time
19:45:25
Azimuth
Unknown
Elevation
Unknown
Doppler factor
Unknown
Orbital elements
Apogee altitude
36,618.509 km
Perigee altitude
36,429.5 km
Semi-major axis
42,902.141 km
Eccentricity
0.0022
Inclination
8.7739°
RAAN
301.8889°
Arg. of periapsis
185.6882°
True anomaly
183.21253°
Mean anomaly
183.2267°
Eccentric anomaly
183.21961°
Mean motion
0.24424 °/min
Orbital period
1,473.93 mins
BSTAR
0
Loading maneuver chart data...
Computing Atmospheric mass density...
Loading historical data...
Loading historical data...
Loading historical data...
Loading historical data...
Loading historical data...
Loading historical data...
Loading historical data...

Documentation

Showing up to 5 results
|